Date,TemperatureHighF,TemperatureAvgF,TemperatureLowF,DewpointHighF,DewpointAvgF,DewpointLowF,HumidityHigh,HumidityAvg,HumidityLow,PressureMaxIn,PressureMinIn,WindSpeedMaxMPH,WindSpeedAvgMPH,GustSpeedMaxMPH,PrecipitationSumIn
2013-2-1,69.0,50.1,30.0,29.0,24.6,15.0,80,44,13,0.00,40.00,9,3,13,0.00
2013-2-2,69.0,57.9,45.0,34.0,24.0,19.0,51,28,15,0.00,40.00,13,4,20,0.00
2013-2-3,64.0,53.9,41.0,43.0,39.3,33.0,84,59,37,0.00,40.00,8,3,21,0.00
2013-2-4,67.0,49.1,33.0,44.0,33.2,24.0,90,61,20,0.00,40.00,14,4,25,0.00
2013-2-5,64.0,47.4,31.0,44.0,33.8,26.0,95,64,26,0.00,40.00,15,4,24,0.00
2013-2-6,57.0,43.7,34.0,42.0,37.1,26.0,98,79,55,0.00,40.00,9,3,14,0.00
2013-2-7,62.0,45.1,27.0,45.0,30.0,16.0,91,63,17,0.00,40.00,12,4,22,0.00
2013-2-8,41.0,36.6,32.0,38.0,33.5,30.0,96,88,72,0.00,40.00,20,7,33,0.00
2013-2-9,42.0,36.0,32.0,34.0,31.4,28.0,97,84,65,0.00,40.00,11,4,22,0.00
2013-2-10,41.0,36.4,30.0,34.0,30.6,27.0,92,79,63,0.00,40.00,9,4,17,0.00
2013-2-11,46.0,35.8,25.0,34.0,23.8,14.0,92,65,31,0.00,40.00,11,3,16,0.00
2013-2-12,55.0,36.1,21.0,20.0,12.8,4.0,74,45,14,0.00,40.00,10,4,17,0.00
2013-2-13,61.0,41.7,21.0,30.0,20.8,15.0,83,50,18,0.00,40.00,11,4,21,0.00
2013-2-14,63.0,47.1,25.0,26.0,22.5,20.0,85,44,20,0.00,40.00,16,7,26,0.00
2013-2-15,61.0,57.0,53.0,21.0,13.8,6.0,26,18,12,0.00,40.00,24,14,44,0.00
2013-2-16,65.0,56.0,33.0,19.0,9.4,2.0,55,18,8,0.00,40.00,19,11,34,0.00
2013-2-17,60.0,41.3,21.0,34.0,20.2,12.0,80,48,16,0.00,40.00,14,5,30,0.00
2013-2-18,63.0,41.2,22.0,41.0,25.6,13.0,94,60,14,0.00,40.00,12,4,23,0.00
2013-2-19,40.0,37.5,34.0,38.0,34.4,32.0,97,89,76,0.00,40.00,18,6,34,0.00
2013-2-20,40.0,35.3,28.0,35.0,29.4,26.0,97,80,59,0.00,40.00,18,7,34,0.00
2013-2-21,43.0,33.4,25.0,36.0,30.5,24.0,98,89,66,0.00,40.00,11,2,20,0.00
2013-2-22,55.0,38.0,20.0,31.0,23.4,15.0,97,63,24,0.00,40.00,7,3,15,0.00
2013-2-23,57.0,40.8,25.0,31.0,25.2,21.0,88,59,26,0.00,40.00,15,4,24,0.00
2013-2-24,49.0,39.6,24.0,24.0,7.3,-3.0,89,33,13,0.00,40.00,24,9,38,0.00
2013-2-25,60.0,39.9,19.0,19.0,12.0,4.0,74,39,13,0.00,40.00,10,4,21,0.00
2013-2-26,58.0,41.1,21.0,24.0,13.3,10.0,77,39,15,0.00,40.00,21,7,30,0.00
2013-2-27,57.0,49.2,35.0,12.0,6.2,1.0,35,18,13,0.00,40.00,21,12,31,0.00
2013-2-28,62.0,54.3,44.0,12.0,5.0,0.0,27,14,11,0.00,40.00,23,10,34,0.00